Location: B�rgermoos
(47.6500°N, 9.0667°E)
Time: 05:58:12
(UTC+00:00)

COSMOS 2406 - Pass Details

Date: 18 September 2020
Orbit: 844 x 863 km, 71.0° (Epoch: 22 October)

Event Time Altitude Azimuth Distance (km) Brightness Sun altitude
Rises 20:47:19 0° 331° (NNW) 3,414 7.4 -31.0°
Reaches altitude 10° 20:49:46 10° 330° (NNW) 2,475 6.5 -31.3°
Enters shadow 20:54:22 58° 311° (NW) 979 3.7 -31.9°
